CAPE
0 0 0 0 0 0 0 0 0 0 0 0 0 0 0 0 0 0 0 0 0 22 9 31 74 27 6 295 566 540 568 575 563 554 550 547 576 569 548 526 535 566 598 609 633 626 630 655 681 712 776 831 804 716 680 606 615 639 635 639 487 418 421 499 478 571 486 254 99 25 22 97 229 553 663 756 716 902 1028 1296 1376 1468 1527 1633 1912 1996
0 0 0 0 0 0 0 0 0 0 0 0 0 0 0 0 0 0 0 23 15 2 0 2 43 62 10 52 566 567 536 562 563 566 552 566 568 569 549 508 486 504 504 536 594 607 557 588 599 644 697 749 806 817 738 583 578 628 639 639 528 437 432 494 484 552 532 370 279 152 34 4 18 389 780 724 757 973 1242 1389 1421 1506 1532 1537 1691 2152
0 0 0 0 0 0 0 0 0 0 0 0 0 0 0 0 0 0 0 2 12 0 0 0 5 39 18 0 396 572 525 536 556 547 547 560 580 564 546 520 476 438 448 396 517 554 416 498 544 587 636 666 700 717 677 550 516 579 626 651 596 478 450 480 499 485 552 431 410 252 155 55 44 262 651 693 721 1153 1334 1408 1451 1506 1525 1489 1527 2007
0 0 0 0 0 0 0 0 0 0 0 0 0 0 0 0 0 0 0 0 0 0 0 0 0 1 6 0 124 590 550 534 547 548 538 547 549 553 551 524 496 457 440 450 470 489 435 447 448 510 534 562 585 624 594 430 478 536 672 648 631 554 476 485 534 690 502 518 426 350 256 185 254 553 767 724 715 938 1287 1431 1480 1497 1502 1482 1469 1668
0 0 0 0 0 0 0 0 0 0 0 0 0 0 0 0 0 0 0 0 0 0 0 0 0 0 0 0 0 312 588 554 540 547 538 531 520 475 481 494 467 443 447 460 472 491 437 477 507 519 507 487 421 452 471 468 471 522 576 635 667 621 540 491 669 695 510 648 520 481 504 595 716 876 820 784 739 692 1217 1413 1470 1553 1533 1502 1484 1449
0 0 0 0 0 0 0 0 0 0 0 0 0 0 0 0 0 0 0 0 0 0 0 0 0 0 0 0 0 0 368 607 607 572 562 552 531 515 470 460 460 414 378 450 494 465 475 472 509 535 542 499 441 427 469 569 502 515 537 589 660 667 622 545 552 624 556 565 484 552 580 623 684 785 871 884 887 816 873 1317 1350 1520 1608 1542 1534 1458
0 0 0 0 0 0 0 0 0 0 0 0 0 0 0 0 0 0 0 0 0 0 0 0 0 0 0 0 0 0 172 573 611 607 608 580 566 501 506 468 448 429 355 335 293 484 512 523 486 534 604 593 528 469 544 544 546 516 504 519 612 679 672 625 556 578 744 481 483 490 580 624 646 651 786 904 894 882 852 940 1183 1473 1651 1601 1575 1593
0 0 0 0 0 0 0 0 0 0 0 0 0 0 0 0 0 0 0 0 0 0 0 0 0 0 0 0 0 0 62 268 520 572 607 612 565 536 510 496 465 439 364 284 152 386 476 541 552 529 620 674 651 617 583 574 566 558 541 561 540 628 783 678 633 571 696 522 498 491 530 647 608 566 664 817 917 930 959 966 1025 1286 1613 1690 1619 1614
0 0 0 0 0 0 0 0 0 0 0 0 0 0 0 0 0 0 0 0 0 0 0 0 0 0 0 0 0 0 17 78 323 491 544 575 588 547 537 497 486 441 390 312 126 145 376 504 562 557 614 676 717 688 654 627 613 604 595 619 618 580 749 707 666 636 615 690 542 514 527 610 704 584 609 808 883 947 1100 1026 1057 1181 1423 1688 1694 1660
0 0 0 0 0 0 0 0 0 0 0 0 0 0 0 0 0 0 0 0 0 0 0 0 0 0 0 0 0 0 1 80 298 405 456 526 539 550 538 530 483 464 405 319 168 115 144 374 433 537 559 639 738 772 747 702 670 652 638 674 696 649 637 691 702 664 643 608 738 538 520 549 640 726 660 721 860 969 1041 1095 1184 1253 1322 1605 1712 1705
0 0 0 0 0 0 0 0 0 0 0 0 0 0 0 0 0 0 0 0 0 0 0 0 0 0 0 0 0 0 0 49 162 275 382 458 496 509 353 500 502 475 444 360 308 128 107 155 323 424 481 618 684 766 792 784 744 707 700 707 728 729 636 652 685 678 648 621 636 589 556 537 561 618 671 711 790 891 1000 1087 1177 1237 1296 1498 1715 1720
0 0 0 0 0 0 0 0 0 0 0 0 0 0 0 0 0 0 0 0 0 0 0 0 0 0 0 0 0 0 0 0 14 139 300 375 455 507 503 486 481 465 442 400 341 158 107 74 152 332 425 494 623 681 776 806 819 802 783 767 778 777 711 635 666 654 641 614 612 612 574 560 549 584 663 714 750 830 909 995 1079 1186 1269 1406 1604 1658
0 0 0 0 0 0 0 0 0 0 0 0 0 0 0 0 0 0 0 0 0 0 0 0 0 0 0 0 0 0 0 0 0 53 176 319 381 473 523 511 512 488 474 439 343 219 133 102 107 232 371 420 532 702 761 808 847 876 875 847 840 822 756 695 671 670 647 616 616 640 613 586 586 566 639 698 726 784 843 907 982 1088 1290 1367 1509 1608
0 0 0 0 0 0 0 0 0 0 0 0 0 0 0 0 0 0 0 0 0 0 0 0 0 0 0 0 0 0 0 0 0 11 65 164 200 219 454 519 518 521 500 483 439 241 206 161 129 143 259 380 518 552 715 768 818 876 910 926 896 875 819 771 722 712 704 678 654 656 665 630 708 618 627 688 717 752 806 864 937 1003 1191 1333 1512 1594
0 0 0 0 0 0 0 0 0 0 0 0 0 0 0 0 0 0 0 0 0 0 0 0 0 0 0 0 0 0 0 0 0 5 33 55 88 208 198 428 498 523 526 511 483 396 244 216 180 143 156 252 357 470 539 715 778 837 895 933 941 913 886 846 825 816 794 787 769 730 706 694 667 670 660 697 742 769 800 862 914 960 1007 1241 1395 1520
0 0 0 0 0 0 0 0 0 0 0 0 0 0 0 0 0 0 0 0 0 0 0 0 0 0 0 0 0 0 0 0 0 0 17 33 40 55 58 134 403 479 513 525 507 479 259 242 210 182 143 160 235 372 471 612 733 784 852 898 920 928 920 911 912 904 903 883 854 800 745 746 780 869 719 730 752 788 819 859 884 922 934 1073 1270 1401
0 0 0 0 0 0 0 0 0 0 0 0 0 0 0 0 0 0 0 0 0 0 0 0 0 0 0 0 0 0 0 0 0 0 0 21 24 23 42 78 298 402 446 475 502 509 474 248 220 218 191 164 185 248 381 531 665 742 800 848 881 908 905 929 958 986 967 967 915 877 844 834 818 794 756 765 786 822 860 874 882 886 902 892 1041 1260
0 0 0 0 0 0 0 0 0 0 0 0 0 0 0 0 0 0 0 0 0 0 0 0 0 0 0 0 0 0 0 0 0 0 0 1 2 6 29 57 222 329 394 430 470 497 498 478 285 250 241 214 209 220 287 424 518 675 752 810 848 873 885 896 949 994 1020 1007 992 980 963 951 938 913 874 834 829 860 879 892 888 876 882 871 824 1118
0 0 0 0 0 0 0 0 0 0 0 0 0 0 0 0 0 0 0 0 0 0 0 0 0 0 0 0 0 0 0 0 0 0 0 0 0 4 26 56 109 222 313 373 433 468 493 388 308 275 274 263 239 283 257 319 425 538 685 749 799 841 858 882 904 973 1006 1013 1037 1048 1051 1041 1032 1008 975 932 903 892 886 908 907 892 874 845 788 1098
0 0 0 0 0 0 0 0 0 0 0 0 0 0 0 0 0 0 0 0 0 0 0 0 0 0 0 0 0 0 0 0 0 0 0 0 0 2 26 80 44 129 231 309 368 430 481 517 524 493 404 284 273 289 277 288 366 478 569 698 756 786 822 850 888 1049 1012 1024 1043 1063 1068 1074 1074 1063 1038 1002 980 941 925 918 924 927 894 852 789 888
0 0 0 0 0 0 0 0 0 0 0 0 0 0 0 0 0 0 0 0 0 0 0 0 0 0 0 0 0 0 0 0 0 0 0 0 0 0 7 16 24 41 100 230 295 358 436 494 535 546 542 374 291 322 352 311 364 446 514 647 720 772 814 845 874 934 1007 1025 1046 1064 1076 1086 1092 1093 1066 1032 996 976 958 955 950 936 917 867 824 815
0 0 0 0 0 0 0 0 0 0 0 0 0 0 0 0 0 0 0 0 0 0 0 0 0 0 0 0 0 0 0 0 0 0 0 0 0 0 0 1 18 36 51 156 218 279 358 450 514 556 558 542 283 321 373 362 373 430 502 574 683 743 801 844 878 938 1021 1039 1060 1079 1090 1081 1084 1096 1094 1060 1041 1010 1007 1000 968 952 920 877 863 842
0 0 0 0 0 0 0 0 0 0 0 0 0 0 0 0 0 0 0 0 0 0 0 0 0 0 0 0 0 0 0 0 0 0 0 0 0 0 0 0 6 46 57 58 149 199 278 366 471 524 559 593 602 571 413 414 430 511 506 542 631 698 767 822 880 929 1018 1075 1090 1109 1112 1107 1103 1114 1111 1086 1064 1058 1053 1034 1018 979 920 888 869 1007
0 0 0 0 0 0 0 0 0 0 0 0 0 0 0 0 0 0 0 0 0 0 0 0 0 0 0 0 0 0 0 0 0 0 0 0 0 0 0 0 0 15 46 60 58 65 118 235 387 474 526 584 606 592 493 475 495 502 544 591 635 687 728 774 834 903 990 1079 1128 1138 1144 1147 1146 1137 1133 1125 1106 1108 1085 1059 1029 1000 934 915 876 1025
0 0 0 0 0 0 0 0 0 0 0 0 0 0 0 0 0 0 0 0 0 0 0 0 0 0 0 0 0 0 0 0 0 0 0 0 0 0 0 0 0 2 33 57 70 81 103 167 301 466 534 585 612 615 593 546 555 578 601 631 666 694 719 755 796 862 946 1042 1117 1155 1179 1188 1171 1164 1162 1157 1168 1160 1118 1082 1033 978 1008 1084 1026 974
0 0 0 0 0 0 0 0 0 0 0 0 0 0 0 0 0 0 0 0 0 0 0 0 0 0 0 0 0 0 0 0 0 0 0 0 0 0 0 0 0 0 8 46 81 86 107 213 391 496 570 606 620 624 620 631 639 651 675 683 694 706 729 757 789 837 897 981 1072 1150 1190 1212 1199 1182 1169 1168 1175 1177 1140 1082 1030 988 982 1117 1193 1179
1 0 0 0 0 0 0 0 0 0 0 0 0 0 0 0 0 0 0 0 0 0 0 0 0 0 0 0 0 0 0 0 0 0 0 0 0 0 0 0 0 0 0 13 58 92 154 279 413 518 603 648 664 659 659 672 705 760 768 769 760 762 765 782 800 827 858 915 994 1081 1142 1189 1194 1179 1159 1159 1152 1133 1110 1079 1039 997 987 1171 1188 1235
0 0 0 0 0 0 0 0 0 0 0 0 0 0 0 0 0 0 0 0 0 0 0 0 0 0 0 0 0 0 0 0 0 0 0 0 0 0 0 0 0 0 0 4 29 70 174 345 476 559 634 679 695 691 696 714 764 826 857 867 851 839 835 835 837 836 861 908 954 1018 1084 1124 1141 1140 1132 1118 1116 1113 1091 1062 1046 1033 1018 1171 1235 1263
1 0 0 0 0 0 0 0 0 0 0 0 0 0 0 0 0 0 0 0 0 0 0 0 0 0 0 0 0 0 0 0 0 0 0 0 0 0 0 0 0 0 0 0 5 42 186 403 538 622 683 730 733 727 737 760 798 848 926 945 951 940 932 915 896 894 898 942 990 1018 1054 1080 1092 1110 1106 1103 1108 1114 1100 1089 1078 1064 1056 1086 1220 1296
0 0 0 0 0 0 0 0 0 0 0 0 0 0 0 0 0 0 0 0 0 0 0 0 0 0 0 0 0 0 0 0 0 0 0 0 0 0 0 0 0 0 0 0 0 34 200 414 599 691 738 773 789 794 796 803 845 915 987 1045 1084 1072 1032 990 983 970 963 979 1029 1066 1074 1099 1129 1124 1139 1154 1162 1160 1139 1123 1116 1111 1114 1110 1115 1218
0 0 0 0 0 0 0 0 0 0 0 0 0 0 0 0 0 0 0 0 0 0 0 0 0 0 0 0 0 731 0 0 0 0 0 0 0 0 0 0 0 0 0 0 18 42 212 400 620 732 793 835 860 864 864 880 890 959 1019 1084 1153 1196 1198 1146 1101 1052 1050 1040 1030 1125 1206 1265 1296 1270 1192 1211 1203 1190 1188 1183 1178 1180 1180 1171 1170 1168
3 0 0 0 0 0 0 0 0 0 0 0 0 0 0 0 0 97 0 27 0 0 0 0 0 0 0 0 0 1378 1047 965 1129 955 1046 941 0 0 0 0 0 0 0 4 26 75 224 429 646 768 861 916 941 942 945 944 957 984 1068 1119 1196 1274 1325 1320 1330 1256 1248 1216 1274 1303 1330 1362 1423 1437 1405 1269 1254 1243 1238 1242 1251 1267 1266 1260 1292 1272
5 0 0 0 0 0 0 0 0 0 0 1 2 0 22 128 0 98 36 14 0 0 0 0 0 38 660 1321 809 1106 1168 1130 1333 1338 1306 1468 1034 0 0 0 0 0 0 13 50 155 256 524 698 825 913 976 1008 1026 1031 1051 1065 1090 1144 1183 1241 1328 1495 1486 1503 1495 1492 1464 1466 1494 1482 1488 1533 1558 1551 1505 1373 1339 1334 1346 1359 1374 1389 1396 1417 1458
6 9 0 2 0 0 0 0 0 0 0 0 4 34 108 170 94 84 109 13 2 4 217 356 560 1027 1369 1372 1368 1309 1470 1512 1471 1514 1603 1650 1631 526 0 0 0 0 3 31 81 193 321 584 725 858 939 1012 1069 1093 1095 1093 1156 1177 1178 1225 1354 1504 1637 1693 1705 1692 1677 1670 1672 1665 1641 1638 1632 1646 1648 1633 1530 1508 1492 1484 1495 1499 1515 1527 1542 1616
6 18 1 0 0 0 0 0 0 0 4 57 105 80 159 134 24 123 82 10 58 44 445 765 1249 1248 1546 1576 1628 1631 1559 1569 1657 1616 1693 1957 1990 1538 0 0 0 0 0 17 84 201 340 632 777 886 972 1034 1092 1106 1085 1131 1184 1196 1240 1283 1454 1608 1790 1848 1889 1875 1891 1897 1878 1864 1848 1819 1794 1769 1754 1698 1661 1664 1662 1655 1647 1651 1667 1668 1722 1805
6 21 0 2 0 0 0 0 0 0 49 190 139 167 210 132 163 121 220 82 43 2 126 735 1082 1301 1473 1708 1633 1517 1539 1665 1758 1700 1734 1926 2129 2244 1284 0 0 0 0 3 81 184 324 692 822 945 1036 1086 1128 1142 1126 1190 1228 1287 1334 1334 1487 1654 1822 2002 2064 2054 2073 2104 2078 2068 2032 1992 1961 1934 1920 1811 1790 1803 1808 1807 1807 1821 1811 1925 2031 2087
5 19 2 1 0 0 0 0 0 2 66 178 154 199 222 179 121 51 134 130 240 105 300 746 1152 1418 1644 1553 1564 1554 1327 1557 1610 1651 1980 2015 2184 2330 2321 1683 12 0 0 0 11 55 629 748 869 967 1059 1127 1160 1173 1183 1208 1257 1315 1382 1437 1500 1676 1842 2032 2167 2214 2267 2295 2255 2255 2220 2175 2136 2118 2089 1977 1958 1972 1976 1969 1970 1970 2104 2284 2365 2463
2 14 1 0 0 0 0 0 0 7 101 51 83 133 117 84 7 1 66 421 642 560 570 887 1046 1516 1530 1562 1566 1443 1529 1583 1558 1758 2091 2186 2252 2352 2302 2248 1644 483 173 134 132 578 673 790 894 997 1088 1168 1201 1233 1240 1248 1267 1280 1416 1492 1576 1692 1869 2026 2194 2290 2375 2421 2426 2436 2397 2359 2326 2297 2274 2155 2153 2144 2130 2154 2307 2413 2540 2621 2719 2782
3 0 8 0 0 0 0 0 0 13 17 14 42 90 94 15 28 1 93 375 564 684 842 915 1200 1477 1540 1610 1602 1619 1666 1709 1798 1810 2053 2255 2343 2319 2392 2339 2280 1857 1012 577 575 670 726 832 912 1014 1076 1165 1243 1283 1300 1295 1299 1311 1427 1542 1608 1700 1882 2115 2229 2322 2388 2484 2507 2550 2561 2527 2498 2460 2364 2301 2439 2531 2611 2702 2762 2812 2857 2902 2945 2990
4 6 8 2 4 2 0 3 39 32 143 19 29 82 65 20 7 75 246 397 720 930 948 1089 1306 1464 1597 1485 1560 1548 1545 1543 1757 2100 2194 2278 2334 2406 2447 2476 2434 2388 2312 2142 1732 1642 1886 2123 1888 1299 1113 1149 1222 1277 1327 1333 1346 1508 1531 1572 1630 1715 1842 2038 2312 2438 2469 2530 2619 2669 2710 2694 2698 2540 2635 2763 2872 2910 2983 3004 3022 3055 3083 3098 3117 3137
4 1 2 2 2 2 2 8 30 36 31 13 19 20 87 94 182 95 290 418 542 948 982 1116 1362 1306 1461 1424 1548 1493 1357 1493 1886 2231 2377 2445 2569 2493 2462 2433 2461 2418 2436 2533 2681 2866 2523 2489 2446 2517 2576 2727 2620 1495 1226 1299 1410 1753 1819 1718 1724 1811 1880 1967 2160 2421 2667 2824 2888 2906 2636 2620 2666 2708 2739 2793 2888 2954 3018 3084 3127 3153 3188 3230 3249 3269
2 0 19 0 1 0 1 29 18 29 29 41 40 40 100 152 89 332 9 465 744 961 1124 1120 1322 1296 1382 1390 1364 1362 1705 1920 2269 2530 2676 2618 2476 2483 2468 2445 2432 2411 2466 2530 2638 2607 2656 2800 2922 3074 3224 3336 3224 2357 1770 1819 2278 2468 2371 2089 2321 3018 3395 3474 2950 2273 2530 2756 3042 3213 3234 3186 2843 2848 2860 2902 2960 2998 3100 3160 3217 3254 3304 3328 3351 3382
3 2 1 0 4 3 4 52 17 24 18 22 52 68 80 100 12 10 242 494 767 1001 1084 1140 1254 1371 1302 1307 1354 1506 1869 2300 2662 2871 2779 2760 2789 2704 2644 2591 2588 2589 2623 2698 2796 2936 3129 3182 3231 3210 3236 3199 2962 2770 2707 2741 2805 2804 2704 2727 3051 3423 3717 3932 3868 3436 2374 2447 2719 3048 3398 3425 3252 3265 3227 3216 3227 3260 3298 3326 3357 3388 3398 3408 3452 3478
5 1 3 3 15 2 11 30 26 12 9 20 36 140 84 27 77 178 453 581 815 938 1087 1084 1152 1276 1312 1329 1525 1764 2180 2556 2774 2843 2876 2834 2777 2772 2723 2703 2677 2685 2654 2707 2869 3100 3284 3463 3552 3544 3383 3100 2859 2767 2770 2774 2895 2934 2992 3205 3563 3702 3854 3990 4099 4103 3680 3022 3214 3313 3336 3340 3569 3398 3413 3448 3347 3397 3439 3504 3529 3530 3534 3553 3550 3564
8 3 11 2 11 1 16 25 17 54 39 2 6 50 109 72 115 238 439 605 820 948 1022 1098 1063 1153 1247 1454 1651 1942 2262 2554 2747 2802 2909 2817 2807 2779 2726 2694 2712 2743 2645 2640 2714 2816 2984 3177 3435 3574 3564 3431 3320 3205 3164 3205 3298 3303 3263 3462 3622 3727 3810 3986 4172 4395 4519 3940 3392 3374 3370 3369 3379 3562 3713 3735 3648 3543 3466 3427 3477 3532 3557 3604 3616 3650
20 19 37 2 2 0 9 33 2 0 0 24 1 0 23 58 128 71 387 364 647 732 791 831 914 1101 1129 1329 1634 1942 2200 2356 2566 2632 2754 2736 2740 2707 2614 2615 2664 2656 2647 2594 2588 2614 2685 2759 2900 3076 3271 3430 3462 3442 3394 3421 3451 3489 3420 3550 3708 3657 3692 3829 4031 4122 4331 4515 4307 3617 3229 3139 3147 3343 3554 3688 3702 3705 3678 3646 3632 3645 3673 3693 3728 3742
20 12 19 3 1 0 4 1 0 1 0 0 1 7 3 21 87 56 124 186 270 620 694 763 785 850 863 1047 1331 1728 1993 2059 2189 2335 2429 2518 2578 2659 2604 2452 2424 2477 2513 2551 2519 2583 2621 2693 2775 2829 2833 2814 2785 2948 3070 3161 3116 3074 3063 3161 3291 3386 3504 3688 3882 4046 4107 4286 4568 4394 3806 3334 3173 3198 3333 3480 3606 3719 3789 3795 3794 3778 3762 3775 3781 3791
0 12 12 3 2 1 4 0 0 2 0 6 8 6 12 18 5 30 124 302 322 438 600 658 653 606 653 1068 1060 1285 1646 1728 1834 1935 2001 2136 2252 2319 2356 2342 2248 2236 2121 2108 1947 2068 1988 1791 1691 1522 1354 1322 1310 1367 1538 1714 1895 1999 2228 2388 2529 2807 3072 3482 3729 3968 4090 4278 4541 4488 4322 3905 3236 3108 3066 3309 3491 3652 3770 3840 3875 3871 3868 3840 3821 3809
13 12 0 1 3 0 6 2 2 0 18 10 14 10 11 0 3 2 76 188 302 313 481 596 592 638 812 912 753 811 950 1506 1622 1641 1269 1685 1795 1781 1966 2037 1885 1794 1686 1499 1481 1568 1546 1520 1447 1355 1280 1200 1133 1043 1004 1151 1275 1338 1362 1596 1866 2150 2666 3210 3659 3958 4080 4303 4588 4696 4412 4157 3920 3464 3019 3015 3244 3473 3666 3814 3861 3903 3906 3866 3835 3786
3 2 5 2 4 3 12 8 7 0 0 0 0 2 24 3 0 0 0 55 190 351 347 420 419 472 616 759 735 617 526 1239 1099 1255 1462 1542 1544 1517 1493 1537 1495 1504 1332 1356 1468 1480 1454 1392 1293 1223 1122 1034 955 965 1092 1260 1358 1398 1531 1848 2170 2378 2833 3250 3623 3958 4116 4229 4611 4854 4662 4327 4064 3730 3443 3118 3144 3275 3410 3567 3739 3880 3907 3956 3873 3850
4 3 4 0 0 3 10 13 10 5 2 0 1 5 19 11 0 0 0 82 133 234 160 212 240 295 383 431 554 701 684 918 899 929 1226 1322 1339 1293 1222 1264 1273 1349 1492 1499 1500 1442 1453 1398 1278 1103 1022 960 952 972 1140 1286 1421 1482 1745 2144 2448 2845 3214 3491 3786 3994 4188 4234 4745 4944 4882 4592 4288 3971 3697 3443 3328 3291 3346 3326 3445 3666 3828 3819 3893 3911
Wind_Speed
nan nan nan nan nan nan nan nan nan nan nan nan nan nan nan nan nan nan nan nan nan nan nan nan nan nan nan 16 13 13 12 9 9 6 4 5 7 8 8 8 7 8 10 7 7 5 4 4 3 3 4 4 2 2 4 4 3 3 5 6 6 9 11 12 12 11 10 9 nan nan nan nan 11 11 11 11 10 10 12 12 12 12 13 13 12 10
nan nan nan nan nan nan nan nan nan nan nan nan nan nan nan nan nan nan nan nan nan nan nan nan nan nan nan nan 13 16 15 7 3 2 2 4 6 6 8 9 8 7 2 6 7 7 5 3 4 3 4 3 0 2 2 2 2 3 4 6 7 10 10 10 10 11 11 12 11 10 nan nan nan 11 11 11 10 10 11 12 12 12 13 13 12 10
nan nan nan nan nan nan nan nan nan nan nan nan nan nan nan nan nan nan nan nan nan nan nan nan nan nan nan nan 18 17 11 4 2 3 2 4 3 1 4 7 7 5 6 8 9 9 7 7 5 2 2 2 1 2 3 4 4 3 4 7 9 9 10 12 12 13 12 14 14 12 13 nan nan 13 12 11 9 8 10 11 12 12 12 12 11 9
nan nan nan nan nan nan nan nan nan nan nan nan nan nan nan nan nan nan nan nan nan nan nan nan nan nan nan nan 21 15 9 9 7 5 6 5 1 2 4 6 7 7 6 10 11 12 10 8 6 3 1 3 4 4 5 4 1 3 4 6 7 8 10 12 12 13 14 14 14 13 13 12 9 9 10 9 8 8 8 11 11 12 11 10 10 8
nan nan nan nan nan nan nan nan nan nan nan nan nan nan nan nan nan nan nan nan nan nan nan nan nan nan nan nan nan 21 18 21 18 17 16 13 10 5 5 6 3 6 6 8 9 10 10 9 8 6 1 3 3 2 3 4 3 5 2 5 7 9 10 12 12 13 15 14 13 11 11 9 8 9 7 7 9 9 9 9 10 11 9 9 8 7
nan nan nan nan nan nan nan nan nan nan nan nan nan nan nan nan nan nan nan nan nan nan nan nan nan nan nan nan nan nan 25 19 20 17 12 10 11 12 6 1 2 3 4 8 11 14 14 12 7 5 4 3 1 1 2 4 4 5 6 7 9 12 12 12 12 12 13 11 9 8 7 7 8 8 7 7 7 7 7 9 9 8 7 7 7 6
nan nan nan nan nan nan nan nan nan nan nan nan nan nan nan nan nan nan nan nan nan nan nan nan nan nan nan nan nan nan 22 14 20 14 9 9 10 7 4 1 3 5 4 5 6 8 10 10 9 8 7 6 4 1 4 6 6 4 5 6 8 11 12 12 12 10 11 10 10 8 9 10 9 9 10 9 9 7 7 7 6 7 6 7 6 5
nan nan nan nan nan nan nan nan nan nan nan nan nan nan nan nan nan nan nan nan nan nan nan nan nan nan nan nan nan nan nan 18 19 14 11 10 8 6 5 3 2 4 5 5 7 9 12 13 13 13 10 6 4 2 5 6 6 4 4 5 7 11 11 11 11 9 9 9 9 10 11 12 12 10 8 8 9 9 8 7 7 6 6 6 6 6
nan nan nan nan nan nan nan nan nan nan nan nan nan nan nan nan nan nan nan nan nan nan nan nan nan nan nan nan nan nan nan nan 18 13 11 10 8 6 5 4 4 3 6 7 5 7 9 11 12 10 7 5 2 2 2 5 7 5 5 5 7 8 9 10 8 8 8 9 10 11 12 12 12 8 6 6 8 9 9 7 8 7 6 5 6 7
nan nan nan nan nan nan nan nan nan nan nan nan nan nan nan nan nan nan nan nan nan nan nan nan nan nan nan nan nan nan nan nan 17 13 12 9 6 4 3 3 3 1 3 4 5 4 5 7 8 8 5 3 3 2 3 7 9 7 7 5 5 6 8 8 6 7 7 8 11 12 12 10 8 7 6 6 5 7 8 7 7 7 6 5 6 7
nan nan nan nan nan nan nan nan nan nan nan nan nan nan nan nan nan nan nan nan nan nan nan nan nan nan nan nan nan nan nan nan 21 20 19 17 13 9 7 4 4 4 2 4 5 3 3 4 5 5 6 6 3 2 3 5 7 7 5 4 3 4 6 6 5 6 6 8 10 11 11 9 6 6 6 7 7 8 8 8 8 7 5 4 6 7
nan nan nan nan nan nan nan nan nan nan nan nan nan nan nan nan nan nan nan nan nan nan nan nan nan nan nan nan nan nan nan nan nan 18 16 15 10 7 8 7 4 3 3 3 6 4 4 nan 5 6 6 5 4 1 1 3 6 6 4 3 1 3 5 5 5 5 6 8 9 11 10 8 6 6 7 5 6 7 7 8 8 9 7 6 7 7
nan nan nan nan nan nan nan nan nan nan nan nan nan nan nan nan nan nan nan nan nan nan nan nan nan nan nan nan nan nan nan nan nan nan 17 13 9 6 5 5 4 4 5 6 7 8 7 2 5 7 6 5 5 2 1 1 5 6 4 2 1 2 4 5 4 4 5 7 8 10 9 8 7 7 6 6 6 7 7 8 8 8 7 7 7 8
nan nan nan nan nan nan nan nan nan nan nan nan nan nan nan nan nan nan nan nan nan nan nan nan nan nan nan nan nan nan nan nan nan nan nan 19 13 9 5 4 5 6 8 9 9 10 7 1 2 3 4 4 2 1 0 3 5 7 6 2 0 2 3 5 6 5 5 5 7 9 10 8 7 7 7 7 6 6 6 8 8 7 6 6 6 5
nan nan nan nan nan nan nan nan nan nan nan nan nan nan nan nan nan nan nan nan nan nan nan nan nan nan nan nan nan nan nan nan nan nan nan nan nan 17 12 7 5 7 9 11 11 9 6 2 1 3 3 2 2 1 1 4 6 7 7 4 1 2 3 4 6 7 6 7 8 10 10 8 9 8 8 7 6 6 6 8 8 8 8 6 6 6
nan nan nan nan nan nan nan nan nan nan nan nan nan nan nan nan nan nan nan nan nan nan nan nan nan nan nan nan nan nan nan nan nan nan nan nan nan nan nan 20 15 13 11 12 12 8 5 5 6 6 5 4 3 2 1 1 4 6 6 4 2 1 2 4 6 8 7 8 10 10 9 7 8 10 9 8 8 7 7 9 10 9 8 8 8 8
nan nan nan nan nan nan nan nan nan nan nan nan nan nan nan nan nan nan nan nan nan nan nan nan nan nan nan nan nan nan nan nan nan nan nan nan nan nan nan nan 16 15 14 14 13 8 5 8 9 6 5 5 3 1 2 1 1 3 6 6 5 4 4 4 6 7 9 10 11 10 9 9 10 9 7 6 5 5 8 11 12 11 9 9 9 9
nan nan nan nan nan nan nan nan nan nan nan nan nan nan nan nan nan nan nan nan nan nan nan nan nan nan nan nan nan nan nan nan nan nan nan nan nan nan nan nan 16 15 14 13 11 8 5 7 7 6 6 3 2 4 2 1 3 7 8 7 6 6 4 5 7 8 10 10 10 11 9 9 9 9 8 8 7 9 11 12 13 13 12 8 9 9
nan nan nan nan nan nan nan nan nan nan nan nan nan nan nan nan nan nan nan nan nan nan nan nan nan nan nan nan nan nan nan nan nan nan nan nan nan nan nan nan 15 15 16 16 13 12 11 11 11 10 6 2 1 1 2 4 7 9 9 9 8 6 6 6 9 11 13 12 14 14 12 11 12 12 11 10 10 11 10 11 12 11 10 11 11 10
nan nan nan nan nan nan nan nan nan nan nan nan nan nan nan nan nan nan nan nan nan nan nan nan nan nan nan nan nan nan nan nan nan nan nan nan nan nan nan nan nan 16 17 16 14 12 11 11 10 8 6 4 3 3 3 6 8 7 8 10 10 11 12 11 10 11 12 13 14 15 15 14 14 14 13 11 11 10 9 11 11 12 12 10 12 9
nan nan nan nan nan nan nan nan nan nan nan nan nan nan nan nan nan nan nan nan nan nan nan nan nan nan nan nan nan nan nan nan nan nan nan nan nan nan nan nan nan nan 17 16 13 12 11 12 13 11 9 8 8 11 11 9 7 8 11 11 11 10 10 9 9 10 11 14 14 14 13 13 14 14 15 12 10 10 10 12 13 13 13 15 12 11
nan nan nan nan nan nan nan nan nan nan nan nan nan nan nan nan nan nan nan nan nan nan nan nan nan nan nan nan nan nan nan nan nan nan nan nan nan nan nan nan nan nan nan 15 14 14 13 13 14 14 15 17 17 13 9 7 9 10 10 10 12 11 10 9 10 11 11 13 14 13 14 14 15 15 15 12 11 9 11 12 13 14 15 12 11 10
nan nan nan nan nan nan nan nan nan nan nan nan nan nan nan nan nan nan nan nan nan nan nan nan nan nan nan nan nan nan nan nan nan nan nan nan nan nan nan nan nan nan nan nan 12 14 14 14 16 17 17 17 12 9 7 7 7 7 9 12 12 11 9 10 11 12 14 13 12 12 14 15 15 15 13 11 11 11 12 14 14 15 14 12 12 10
nan nan nan nan nan nan nan nan nan nan nan nan nan nan nan nan nan nan nan nan nan nan nan nan nan nan nan nan nan nan nan nan nan nan nan nan nan nan nan nan nan nan nan nan nan nan 14 17 20 23 21 18 16 15 11 8 7 9 11 12 13 10 10 12 14 14 15 14 13 12 14 14 15 14 14 13 13 12 13 16 16 16 13 12 13 11
nan nan nan nan nan nan nan nan nan nan nan nan nan nan nan nan nan nan nan nan nan nan nan nan nan nan nan nan nan nan nan nan nan nan nan nan nan nan nan nan nan nan nan nan nan nan 15 21 22 21 19 18 17 16 12 9 8 8 10 13 12 12 14 14 15 15 14 14 14 13 13 13 14 14 12 13 15 14 15 15 17 16 13 13 12 10
nan nan nan nan nan nan nan nan nan nan nan nan nan nan nan nan nan nan nan nan nan nan nan nan nan nan nan nan nan nan nan nan nan nan nan nan nan nan nan nan nan nan nan nan nan nan 17 19 19 19 19 19 18 16 13 10 9 9 11 12 14 16 17 16 16 14 13 14 14 13 12 12 13 13 12 12 13 14 15 15 14 13 15 13 11 11
nan nan nan nan nan nan nan nan nan nan nan nan nan nan nan nan nan nan nan nan nan nan nan nan nan nan nan nan nan nan nan nan nan nan nan nan nan nan nan nan nan nan nan nan nan nan 20 21 19 18 18 19 18 16 15 12 11 11 12 13 15 17 18 18 17 15 13 13 13 14 12 12 12 13 13 12 13 16 16 15 15 14 14 15 13 13
nan nan nan nan nan nan nan nan nan nan nan nan nan nan nan nan nan nan nan nan nan nan nan nan nan nan nan nan nan nan nan nan nan nan nan nan nan nan nan nan nan nan nan nan nan nan 23 17 18 19 19 20 20 19 18 15 13 13 13 13 16 18 20 20 17 15 13 13 12 12 11 12 13 14 14 16 17 18 16 15 14 14 15 16 14 13
nan nan nan nan nan nan nan nan nan nan nan nan nan nan nan nan nan nan nan nan nan nan nan nan nan nan nan nan nan nan nan nan nan nan nan nan nan nan nan nan nan nan nan nan nan nan 24 20 21 20 20 20 21 21 19 18 17 18 18 18 17 18 18 19 18 15 13 12 11 11 13 15 16 17 18 18 19 18 17 16 16 16 16 15 14 15
nan nan nan nan nan nan nan nan nan nan nan nan nan nan nan nan nan nan nan nan nan nan nan nan nan nan nan nan nan nan nan nan nan nan nan nan nan nan nan nan nan nan nan nan nan nan 23 20 22 23 22 22 22 21 20 20 19 17 16 15 16 17 19 20 17 15 13 11 10 13 16 17 19 19 19 19 18 18 17 18 17 16 15 14 13 14
nan nan nan nan nan nan nan nan nan nan nan nan nan nan nan nan nan nan nan nan nan nan nan nan nan nan nan nan nan 34 nan nan nan nan nan nan nan nan nan nan nan nan nan nan nan nan 22 22 26 27 25 23 21 21 20 19 16 16 16 16 16 16 18 18 17 15 12 11 13 16 18 20 20 21 20 19 20 20 18 16 16 15 15 15 14 13
nan nan nan nan nan nan nan nan nan nan nan nan nan nan nan nan nan nan nan nan nan nan nan nan nan nan nan nan nan 41 42 43 40 41 38 34 nan nan nan nan nan nan nan nan nan nan 23 25 29 28 24 20 20 20 20 20 18 17 15 14 14 16 18 18 16 14 13 13 16 18 18 19 20 20 20 20 19 18 18 17 15 14 14 14 12 13
nan nan nan nan nan nan nan nan nan nan nan nan nan nan nan 67 nan nan nan nan nan nan nan nan nan nan 44 48 45 45 42 42 42 40 38 34 28 nan nan nan nan nan nan nan nan 22 22 22 24 23 20 19 20 20 18 17 16 13 13 13 14 18 17 16 16 16 16 16 16 17 19 20 20 19 20 19 18 19 18 15 13 12 12 11 11 12
nan nan nan nan nan nan nan nan nan nan nan nan nan nan 66 68 nan nan 66 nan nan nan 46 42 38 42 48 50 45 41 41 39 37 36 31 29 30 27 nan nan nan nan nan nan nan 20 21 23 22 21 19 17 16 16 18 17 14 16 18 19 20 17 17 16 16 16 16 16 16 17 19 19 18 18 17 18 18 17 15 13 11 10 12 12 12 11
nan nan nan nan nan nan nan nan nan nan nan nan 59 nan 71 68 nan 74 nan nan nan nan 61 54 50 49 51 47 42 38 35 34 38 42 43 41 36 30 nan nan nan nan nan nan nan 25 25 22 21 22 22 22 23 26 26 26 28 29 25 21 18 18 17 15 15 15 16 15 16 18 18 17 16 16 16 16 15 15 12 11 12 11 12 13 12 11
nan nan nan nan nan nan nan nan nan nan nan 58 58 67 70 68 72 77 65 nan nan nan 61 56 53 52 51 50 47 43 40 41 38 43 48 47 43 38 31 nan nan nan nan nan nan 24 25 25 24 23 23 27 28 27 24 24 26 26 23 21 20 18 17 16 15 15 16 15 15 15 15 15 15 14 15 14 14 14 12 12 12 12 14 14 12 12
nan nan nan nan nan nan nan nan nan nan nan 62 62 65 70 68 71 nan 65 64 69 65 64 59 56 55 57 55 50 46 43 40 45 50 54 53 49 44 40 33 nan nan nan nan nan nan 29 31 31 32 34 32 29 28 26 27 28 28 26 22 20 19 18 17 15 15 15 15 15 15 14 14 14 13 14 14 14 13 12 12 12 13 15 14 13 12
nan nan nan nan nan nan nan nan nan nan 57 nan nan 62 65 nan nan nan nan 59 70 70 64 63 60 60 60 59 57 51 45 47 52 50 53 54 50 47 45 40 31 23 24 28 30 32 34 36 38 37 36 36 33 30 30 29 30 30 26 22 21 19 18 16 14 15 16 15 14 14 13 13 12 12 12 13 11 10 10 10 11 11 14 12 12 12
nan nan nan nan nan nan nan nan nan nan nan nan nan nan nan nan nan nan nan 59 65 64 64 64 63 64 61 60 59 53 49 49 49 49 51 52 50 49 47 42 35 28 25 26 28 30 32 32 32 34 37 38 36 34 32 32 32 31 27 24 22 20 18 16 15 16 15 14 13 12 11 11 10 10 10 10 8 8 8 9 9 10 13 12 12 13
nan nan nan nan nan nan nan nan nan nan 60 nan nan nan nan nan nan nan 57 60 66 65 62 64 64 65 63 61 58 59 56 50 51 50 51 51 50 48 47 46 40 32 31 34 35 33 33 33 33 33 33 33 33 34 34 33 32 29 27 24 23 21 18 17 16 16 15 14 14 12 11 11 9 9 9 8 8 10 10 12 14 14 14 13 14 14
nan nan nan nan nan nan nan nan nan nan nan nan nan nan nan nan 55 nan 59 61 64 63 62 62 62 63 63 60 61 58 57 55 52 50 51 52 54 53 49 46 40 33 34 39 40 37 36 35 34 34 34 34 34 35 35 32 31 29 29 27 25 21 20 21 21 20 19 18 16 14 12 12 10 9 9 10 10 10 11 15 15 15 16 16 16 15
nan nan nan nan nan nan nan nan nan nan nan nan nan nan 62 51 nan 60 nan 62 62 62 63 63 64 66 65 61 59 58 58 58 58 56 55 54 49 48 48 46 41 37 39 44 47 43 40 40 40 40 40 37 35 37 37 34 33 33 33 32 30 30 31 29 26 24 22 19 16 15 14 13 13 12 13 13 15 15 14 14 15 16 16 18 17 15
nan nan nan nan nan nan nan nan nan nan nan nan nan nan nan 56 nan nan 64 64 63 63 65 66 65 68 67 62 60 60 63 65 64 60 57 56 53 51 49 46 41 38 41 48 51 49 44 44 45 44 42 39 40 40 39 37 36 36 37 37 33 31 32 31 30 28 26 24 21 19 17 16 14 15 16 17 17 16 15 16 16 16 17 17 16 15
nan nan nan nan nan nan nan nan nan nan nan nan nan 58 nan nan nan 58 64 67 65 63 66 65 66 67 67 64 61 62 66 65 66 64 61 58 56 54 50 46 43 40 43 49 52 51 49 49 49 48 45 43 43 42 39 39 38 38 39 38 34 35 34 33 31 31 29 27 25 23 21 20 18 17 18 18 20 19 18 20 19 18 18 17 16 16
nan nan nan nan nan nan nan nan nan nan nan nan nan nan 54 nan 58 61 64 64 65 66 67 64 67 68 67 67 63 64 67 67 65 64 61 58 55 54 51 47 45 43 44 48 52 52 53 54 53 51 49 47 46 42 40 40 41 41 41 36 36 35 36 35 35 34 33 31 28 26 24 23 22 21 21 21 22 22 22 21 22 21 20 20 17 16
nan nan nan nan nan nan nan nan nan nan nan nan nan nan nan nan 61 nan 69 72 69 67 67 66 68 68 67 66 66 66 65 65 66 64 62 60 57 55 51 49 47 44 46 48 51 52 51 50 49 48 48 47 44 41 40 41 41 42 37 36 37 37 38 39 39 39 38 37 34 31 30 28 26 25 24 25 26 24 24 24 24 22 23 23 20 17
nan nan nan nan nan nan nan nan nan nan nan nan nan nan nan nan nan nan 72 74 73 72 72 69 67 69 68 64 67 66 66 67 66 65 62 60 56 54 53 50 47 46 47 50 50 49 48 44 42 41 42 42 40 40 41 42 42 41 40 41 41 41 41 43 43 43 42 40 39 39 36 31 30 30 29 28 29 28 28 28 26 25 25 25 24 22
nan nan nan nan nan nan nan nan nan nan nan nan nan nan nan nan nan nan 71 74 75 73 72 71 70 70 72 69 69 69 70 70 69 68 61 59 55 53 53 52 49 47 49 50 51 50 48 45 42 39 38 39 38 40 41 43 44 44 44 44 45 45 45 47 46 45 44 42 41 42 39 36 33 32 32 32 32 32 32 31 29 27 27 27 27 27
nan nan nan nan nan nan nan nan nan nan nan nan nan nan nan nan nan nan nan 73 75 76 76 76 74 72 73 73 73 71 71 72 69 67 64 59 56 53 53 52 50 48 48 51 51 51 49 45 44 41 39 37 37 39 42 44 44 45 46 45 46 46 47 46 46 46 46 46 44 43 41 40 38 38 38 43 47 48 46 40 36 31 30 33 33 31
nan nan nan nan nan nan nan nan nan nan nan nan nan nan nan nan nan nan nan nan 71 73 74 75 74 73 72 72 75 71 69 65 66 66 64 60 58 57 56 55 52 51 50 49 49 50 49 47 44 41 39 37 38 39 39 40 40 41 42 44 45 45 45 45 45 47 49 49 47 47 45 45 45 46 47 48 48 48 50 53 50 47 41 40 42 43
nan nan nan nan nan nan nan nan nan nan nan nan nan nan nan nan nan nan nan nan 66 65 68 70 71 72 71 72 72 72 69 66 62 63 63 61 59 57 56 56 54 52 51 50 50 50 48 46 43 40 40 38 39 39 38 38 38 39 40 41 41 40 41 41 44 46 46 47 48 47 48 50 51 50 50 50 50 50 50 50 55 60 58 51 49 49
Wind_Direction
nan nan nan nan nan nan nan nan nan nan nan nan nan nan nan nan nan nan nan nan nan nan nan nan nan nan nan 265 268 269 256 230 228 257 285 336 341 340 333 338 358 14 15 349 351 360 353 342 297 261 236 201 207 210 218 223 212 182 167 178 164 175 182 180 178 173 169 154 nan nan nan nan 127 126 124 119 117 117 114 107 99 92 86 81 75 72
nan nan nan nan nan nan nan nan nan nan nan nan nan nan nan nan nan nan nan nan nan nan nan nan nan nan nan nan 254 244 247 245 268 280 297 346 349 339 339 341 359 18 340 340 351 9 360 348 340 288 243 222 217 149 214 234 234 192 178 167 170 181 177 173 172 171 166 160 153 157 nan nan nan 135 126 118 122 121 120 113 104 96 88 80 74 70
nan nan nan nan nan nan nan nan nan nan nan nan nan nan nan nan nan nan nan nan nan nan nan nan nan nan nan nan 231 240 252 234 261 299 316 310 329 344 340 343 342 338 14 3 7 8 10 2 357 325 264 231 190 180 177 190 208 198 176 171 178 174 177 174 174 176 170 171 168 166 161 nan nan 142 136 132 135 133 123 115 105 96 88 80 78 73
nan nan nan nan nan nan nan nan nan nan nan nan nan nan nan nan nan nan nan nan nan nan nan nan nan nan nan nan 220 220 227 209 208 202 210 229 297 38 2 326 328 358 7 12 7 8 7 7 7 7 293 243 229 199 179 175 141 187 180 178 176 176 180 180 178 177 178 180 177 171 172 164 153 142 146 142 146 134 128 111 104 99 90 83 78 71
nan nan nan nan nan nan nan nan nan nan nan nan nan nan nan nan nan nan nan nan nan nan nan nan nan nan nan nan nan 201 199 199 200 198 197 185 156 144 208 220 269 351 17 23 11 5 6 10 13 10 346 238 245 219 181 166 158 185 183 175 180 185 184 184 187 189 193 190 182 176 174 167 158 161 151 153 143 134 130 125 112 99 96 90 82 74
nan nan nan nan nan nan nan nan nan nan nan nan nan nan nan nan nan nan nan nan nan nan nan nan nan nan nan nan nan nan 213 201 208 208 195 177 164 186 194 56 337 2 28 25 18 11 6 5 356 358 6 15 351 337 197 180 170 193 192 182 184 187 188 190 195 199 200 186 177 168 150 135 123 126 147 135 127 138 126 112 132 123 107 95 92 86
nan nan nan nan nan nan nan nan nan nan nan nan nan nan nan nan nan nan nan nan nan nan nan nan nan nan nan nan nan nan 214 204 213 208 182 177 175 169 122 50 337 349 12 49 39 18 6 4 7 13 20 30 28 356 223 201 190 198 201 187 186 187 190 197 202 204 197 187 171 147 135 136 138 143 148 151 150 142 145 158 136 125 122 103 92 91
nan nan nan nan nan nan nan nan nan nan nan nan nan nan nan nan nan nan nan nan nan nan nan nan nan nan nan nan nan nan nan 205 211 199 179 178 174 140 119 112 45 350 354 1 15 20 17 7 11 15 18 21 33 266 228 208 205 210 209 204 193 189 191 199 207 204 196 186 172 163 154 157 164 164 151 149 152 165 171 159 150 145 127 114 103 96
nan nan nan nan nan nan nan nan nan nan nan nan nan nan nan nan nan nan nan nan nan nan nan nan nan nan nan nan nan nan nan nan 203 197 183 175 166 139 120 120 102 7 338 337 344 16 18 11 14 18 14 19 325 285 246 214 212 213 210 209 199 193 194 197 209 206 195 187 180 175 173 173 178 171 150 172 173 172 171 167 167 156 149 135 115 102
nan nan nan nan nan nan nan nan nan nan nan nan nan nan nan nan nan nan nan nan nan nan nan nan nan nan nan nan nan nan nan nan 202 191 189 186 169 149 143 125 111 182 266 308 339 352 6 5 9 9 6 341 7 346 240 215 211 210 210 208 198 186 193 196 200 203 199 191 189 184 183 185 183 167 172 186 174 177 174 164 164 169 167 144 126 109
nan nan nan nan nan nan nan nan nan nan nan nan nan nan nan nan nan nan nan nan nan nan nan nan nan nan nan nan nan nan nan nan 204 198 197 193 187 181 177 183 186 196 243 297 307 313 344 331 333 326 357 17 5 225 238 218 210 214 222 219 197 168 185 192 192 203 201 196 194 189 192 194 175 160 182 190 183 191 183 168 171 171 161 140 118 120
nan nan nan nan nan nan nan nan nan nan nan nan nan nan nan nan nan nan nan nan nan nan nan nan nan nan nan nan nan nan nan nan nan 203 205 204 207 204 199 199 194 210 244 290 285 275 254 nan 331 349 8 1 359 330 297 213 210 214 219 234 219 161 161 171 180 195 197 201 198 196 200 197 169 166 185 192 191 192 174 171 171 173 175 149 141 136
nan nan nan nan nan nan nan nan nan nan nan nan nan nan nan nan nan nan nan nan nan nan nan nan nan nan nan nan nan nan nan nan nan nan 203 204 202 208 215 245 241 249 261 263 268 258 249 312 11 3 1 352 356 14 24 203 207 208 212 258 306 127 138 149 166 179 191 202 203 205 206 195 178 169 188 206 208 201 181 176 174 176 164 171 162 151
nan nan nan nan nan nan nan nan nan nan nan nan nan nan nan nan nan nan nan nan nan nan nan nan nan nan nan nan nan nan nan nan nan nan nan 197 191 191 185 243 254 255 266 270 266 258 259 305 54 351 335 357 334 342 173 182 193 200 197 202 154 101 145 150 155 159 179 191 204 211 210 197 182 177 199 214 222 218 193 182 170 167 165 165 152 148
nan nan nan nan nan nan nan nan nan nan nan nan nan nan nan nan nan nan nan nan nan nan nan nan nan nan nan nan nan nan nan nan nan nan nan nan nan 185 174 187 227 239 252 263 259 255 259 267 319 280 303 310 295 308 223 187 186 197 191 192 127 133 151 155 150 162 163 182 200 209 209 199 186 189 208 213 218 225 209 187 181 174 177 165 153 131
nan nan nan nan nan nan nan nan nan nan nan nan nan nan nan nan nan nan nan nan nan nan nan nan nan nan nan nan nan nan nan nan nan nan nan nan nan nan nan 193 199 210 220 237 244 239 241 242 234 234 242 251 253 281 202 181 192 194 189 190 155 121 163 159 159 161 165 179 194 203 209 200 191 199 212 215 216 213 208 198 191 187 180 165 161 155
nan nan nan nan nan nan nan nan nan nan nan nan nan nan nan nan nan nan nan nan nan nan nan nan nan nan nan nan nan nan nan nan nan nan nan nan nan nan nan nan 208 215 211 224 234 225 226 234 231 235 246 242 261 288 31 42 209 216 212 200 185 172 181 169 165 166 173 181 188 192 200 200 198 207 217 221 225 223 213 208 200 197 187 179 175 172
nan nan nan nan nan nan nan nan nan nan nan nan nan nan nan nan nan nan nan nan nan nan nan nan nan nan nan nan nan nan nan nan nan nan nan nan nan nan nan nan 215 222 218 220 230 230 225 238 245 238 236 264 335 9 358 297 222 217 216 210 200 188 183 181 181 175 180 182 182 187 190 193 198 208 213 216 218 217 218 213 208 205 203 184 182 187
nan nan nan nan nan nan nan nan nan nan nan nan nan nan nan nan nan nan nan nan nan nan nan nan nan nan nan nan nan nan nan nan nan nan nan nan nan nan nan nan 215 225 227 223 221 218 206 203 210 211 205 189 150 204 243 239 233 220 214 213 208 193 187 198 195 188 185 182 183 185 186 188 194 205 213 214 218 220 218 219 216 210 203 203 204 203
nan nan nan nan nan nan nan nan nan nan nan nan nan nan nan nan nan nan nan nan nan nan nan nan nan nan nan nan nan nan nan nan nan nan nan nan nan nan nan nan nan 231 238 236 228 222 210 196 204 209 193 185 179 185 224 249 239 247 233 226 211 200 201 205 203 200 191 186 186 186 188 188 194 206 216 218 223 221 219 219 219 214 214 211 217 215
nan nan nan nan nan nan nan nan nan nan nan nan nan nan nan nan nan nan nan nan nan nan nan nan nan nan nan nan nan nan nan nan nan nan nan nan nan nan nan nan nan nan 247 247 239 233 219 196 195 196 194 192 192 196 208 221 243 247 238 233 229 221 213 212 215 215 202 200 194 193 192 193 199 208 216 221 222 221 221 221 219 218 216 221 220 227
nan nan nan nan nan nan nan nan nan nan nan nan nan nan nan nan nan nan nan nan nan nan nan nan nan nan nan nan nan nan nan nan nan nan nan nan nan nan nan nan nan nan nan 258 256 251 234 205 197 199 205 209 212 209 208 207 226 245 253 249 242 230 217 218 219 220 218 211 204 201 199 199 204 211 218 224 223 220 224 224 223 224 225 227 224 231
nan nan nan nan nan nan nan nan nan nan nan nan nan nan nan nan nan nan nan nan nan nan nan nan nan nan nan nan nan nan nan nan nan nan nan nan nan nan nan nan nan nan nan nan 262 257 243 219 207 212 220 225 229 227 222 212 221 243 258 255 246 242 232 225 224 225 224 220 214 208 207 208 210 215 220 224 221 217 221 222 224 227 229 227 226 225
nan nan nan nan nan nan nan nan nan nan nan nan nan nan nan nan nan nan nan nan nan nan nan nan nan nan nan nan nan nan nan nan nan nan nan nan nan nan nan nan nan nan nan nan nan nan 237 223 216 216 220 221 219 220 219 204 205 224 239 249 247 247 241 230 224 226 228 226 220 215 212 211 213 219 220 218 215 215 217 220 222 225 225 226 225 221
nan nan nan nan nan nan nan nan nan nan nan nan nan nan nan nan nan nan nan nan nan nan nan nan nan nan nan nan nan nan nan nan nan nan nan nan nan nan nan nan nan nan nan nan nan nan 230 224 224 223 229 231 228 225 218 205 206 221 234 241 246 241 238 231 227 229 230 233 232 226 216 212 214 218 221 216 212 211 216 219 222 221 223 224 220 216
nan nan nan nan nan nan nan nan nan nan nan nan nan nan nan nan nan nan nan nan nan nan nan nan nan nan nan nan nan nan nan nan nan nan nan nan nan nan nan nan nan nan nan nan nan nan 237 238 239 237 236 233 231 227 217 207 210 219 228 236 238 237 233 230 227 228 231 231 233 230 226 218 216 218 221 218 211 211 215 217 218 217 213 217 214 212
nan nan nan nan nan nan nan nan nan nan nan nan nan nan nan nan nan nan nan nan nan nan nan nan nan nan nan nan nan nan nan nan nan nan nan nan nan nan nan nan nan nan nan nan nan nan 229 233 246 248 242 238 236 225 213 211 215 221 226 233 234 234 234 230 227 226 228 231 233 231 227 223 220 219 219 215 209 211 213 212 212 212 210 213 211 210
nan nan nan nan nan nan nan nan nan nan nan nan nan nan nan nan nan nan nan nan nan nan nan nan nan nan nan nan nan nan nan nan nan nan nan nan nan nan nan nan nan nan nan nan nan nan 223 229 240 243 239 237 234 223 211 208 214 223 231 235 231 231 230 224 226 227 228 230 229 227 224 219 219 216 212 209 208 210 211 209 208 207 209 213 210 207
nan nan nan nan nan nan nan nan nan nan nan nan nan nan nan nan nan nan nan nan nan nan nan nan nan nan nan nan nan nan nan nan nan nan nan nan nan nan nan nan nan nan nan nan nan nan 215 220 230 239 238 237 238 230 218 212 214 216 219 223 227 229 230 228 227 227 229 230 229 222 218 214 212 210 209 207 207 209 209 209 209 211 212 213 209 208
nan nan nan nan nan nan nan nan nan nan nan nan nan nan nan nan nan nan nan nan nan nan nan nan nan nan nan nan nan nan nan nan nan nan nan nan nan nan nan nan nan nan nan nan nan nan 213 221 232 239 241 238 240 235 222 216 219 224 230 231 232 229 228 229 227 226 226 227 224 219 215 211 207 208 208 207 208 209 210 211 212 212 211 210 207 211
nan nan nan nan nan nan nan nan nan nan nan nan nan nan nan nan nan nan nan nan nan nan nan nan nan nan nan nan nan 182 nan nan nan nan nan nan nan nan nan nan nan nan nan nan nan nan 213 222 230 235 238 238 241 239 229 223 225 226 230 231 233 230 228 229 225 225 225 223 222 220 214 209 205 206 206 206 208 211 213 213 212 209 206 205 208 213
nan nan nan nan nan nan nan nan nan nan nan nan nan nan nan nan nan nan nan nan nan nan nan nan nan nan nan nan nan 184 192 196 196 195 194 191 nan nan nan nan nan nan nan nan nan nan 215 223 230 238 242 242 241 236 226 222 222 224 226 231 231 228 227 224 221 221 221 222 223 221 216 210 210 207 207 210 212 215 217 216 212 206 204 207 213 219
nan nan nan nan nan nan nan nan nan nan nan nan nan nan nan 204 nan nan nan nan nan nan nan nan nan nan 174 173 178 185 191 195 197 195 191 183 175 nan nan nan nan nan nan nan nan 216 221 228 234 242 245 241 237 232 227 229 226 220 222 227 225 224 222 221 219 219 220 222 223 219 215 213 213 210 211 213 216 218 220 218 213 208 210 216 224 230
nan nan nan nan nan nan nan nan nan nan nan nan nan nan 209 208 nan nan 209 nan nan nan 205 206 194 180 180 183 188 190 196 196 195 190 187 180 169 169 nan nan nan nan nan nan nan 220 221 224 226 231 235 233 232 232 229 227 220 211 214 219 220 222 216 218 217 219 221 223 221 220 218 216 215 213 213 216 218 220 220 219 215 215 220 225 232 236
nan nan nan nan nan nan nan nan nan nan nan nan 209 nan 208 208 nan 201 nan nan nan nan 201 198 193 185 182 183 183 189 192 190 189 188 185 181 179 177 nan nan nan nan nan nan nan 212 219 226 227 222 215 209 214 215 216 212 209 211 213 217 221 218 217 216 217 218 219 219 219 220 218 217 214 211 212 214 216 218 216 217 215 222 228 233 240 245
nan nan nan nan nan nan nan nan nan nan nan 200 208 207 208 212 208 201 207 nan nan nan 200 196 188 184 184 183 179 176 180 181 183 186 185 183 183 184 184 nan nan nan nan nan nan 214 221 222 222 221 212 210 216 218 219 217 214 215 214 216 220 219 217 215 214 214 215 213 215 217 215 214 209 205 208 211 213 215 214 215 220 227 231 233 234 236
nan nan nan nan nan nan nan nan nan nan nan 202 204 204 206 207 202 nan 204 208 211 205 199 194 187 187 185 184 178 174 176 180 185 185 183 183 184 184 187 185 nan nan nan nan nan nan 209 214 217 215 212 212 215 220 220 218 214 214 216 216 218 220 218 215 211 210 212 209 208 208 207 206 205 203 207 213 216 218 219 222 226 229 234 236 236 237
nan nan nan nan nan nan nan nan nan nan 204 nan nan 201 206 nan nan nan nan 205 207 201 197 193 190 188 187 183 180 176 179 187 184 181 182 182 184 186 187 191 192 210 224 218 211 212 212 214 217 217 218 216 215 218 220 221 217 216 215 215 217 222 220 216 210 208 209 207 207 206 206 205 205 205 210 218 220 221 220 223 227 234 240 242 241 238
nan nan nan nan nan nan nan nan nan nan nan nan nan nan nan nan nan nan nan 210 207 199 194 192 190 187 186 185 181 183 189 191 185 182 182 183 186 191 194 194 195 201 214 226 225 216 215 219 224 225 226 225 221 217 221 222 221 217 215 214 216 217 215 207 203 203 202 201 204 203 202 201 201 201 209 216 215 215 218 223 229 234 240 238 238 238
nan nan nan nan nan nan nan nan nan nan 197 nan nan nan nan nan nan nan 210 212 202 195 193 191 189 188 183 186 187 192 193 197 190 186 185 187 191 194 198 199 199 205 213 214 215 216 214 219 226 228 232 231 224 220 222 224 222 218 216 215 214 209 203 198 194 194 193 197 201 196 193 194 196 198 207 210 212 217 220 224 227 234 241 240 240 241
nan nan nan nan nan nan nan nan nan nan nan nan nan nan nan nan 214 nan 211 207 199 193 193 192 189 188 184 189 192 196 194 197 195 189 192 197 198 199 201 202 206 209 210 212 214 211 211 213 220 225 228 225 220 218 221 223 224 220 217 216 211 202 197 196 196 194 193 196 199 197 197 200 205 213 215 220 226 232 234 236 239 244 248 247 249 251
nan nan nan nan nan nan nan nan nan nan nan nan nan nan 197 212 nan 213 nan 207 201 195 194 194 191 189 188 188 195 195 197 198 199 196 199 201 201 204 206 207 210 214 209 208 209 206 209 211 218 222 224 220 219 219 221 224 225 221 220 218 213 206 201 201 199 198 198 199 200 203 207 212 216 224 227 231 234 236 238 243 248 250 255 252 256 264
nan nan nan nan nan nan nan nan nan nan nan nan nan nan nan 213 nan nan 202 204 202 195 197 196 196 191 191 189 191 195 199 201 200 200 202 204 204 207 208 208 208 208 206 205 206 200 203 213 217 221 225 221 221 221 223 227 227 224 223 221 213 204 203 202 202 204 202 200 201 206 213 218 228 232 232 237 244 247 247 249 252 253 256 261 265 273
nan nan nan nan nan nan nan nan nan nan nan nan nan 209 nan nan nan 202 203 203 200 199 198 198 197 194 192 192 190 195 201 202 202 202 204 205 207 208 209 207 205 204 205 206 205 202 201 211 215 219 220 221 222 223 223 229 229 226 225 223 213 209 205 206 206 209 208 204 204 210 216 224 231 236 238 244 247 249 250 251 254 256 257 261 268 275
nan nan nan nan nan nan nan nan nan nan nan nan nan nan 211 nan 206 203 202 203 200 198 198 199 198 195 194 193 192 197 202 201 203 204 206 206 207 209 209 205 202 201 203 204 204 202 204 210 216 220 221 222 225 223 220 223 231 229 229 225 224 220 213 209 210 212 212 211 210 214 217 222 228 235 240 244 250 251 251 253 256 256 257 260 264 272
nan nan nan nan nan nan nan nan nan nan nan nan nan nan nan nan 201 nan 201 199 199 198 198 199 197 196 194 196 196 198 201 201 203 202 204 205 206 207 205 201 198 198 200 202 203 205 207 210 215 220 223 223 223 222 219 219 224 230 227 226 227 227 224 220 218 217 216 216 217 217 219 220 221 227 234 240 244 249 252 256 259 259 257 259 261 266
nan nan nan nan nan nan nan nan nan nan nan nan nan nan nan nan nan nan 199 198 196 195 196 198 197 197 196 197 198 199 199 202 203 202 202 203 203 204 202 199 197 199 200 201 202 206 208 209 213 216 219 221 217 217 217 220 219 222 223 223 224 225 226 225 224 224 223 221 220 222 223 222 223 227 231 235 240 243 247 251 255 257 257 258 260 260
nan nan nan nan nan nan nan nan nan nan nan nan nan nan nan nan nan nan 198 199 196 193 194 196 197 198 198 200 200 200 200 203 203 201 198 199 199 200 199 197 196 198 199 201 203 207 210 211 213 215 218 219 216 216 217 218 218 218 220 220 222 224 226 226 225 225 227 227 225 227 228 226 227 231 231 234 238 240 242 245 250 255 258 261 262 262
nan nan nan nan nan nan nan nan nan nan nan nan nan nan nan nan nan nan nan 197 197 193 191 194 198 200 201 202 201 201 201 203 204 201 198 196 197 198 197 195 196 198 198 200 201 206 210 212 215 216 218 219 217 217 217 218 217 217 219 219 220 223 227 227 227 227 228 230 232 233 232 230 231 232 234 235 233 230 229 230 231 240 248 248 248 257
nan nan nan nan nan nan nan nan nan nan nan nan nan nan nan nan nan nan nan nan 198 194 192 192 196 200 201 203 204 202 202 202 203 203 199 195 193 194 195 196 197 197 198 198 202 205 208 209 212 215 217 217 216 216 216 217 216 216 218 219 220 221 226 226 227 227 226 230 233 234 235 234 233 235 236 237 237 238 235 234 236 232 234 240 234 236
nan nan nan nan nan nan nan nan nan nan nan nan nan nan nan nan nan nan nan nan 198 195 192 194 197 197 201 203 205 201 200 200 202 204 202 198 192 192 195 198 199 199 199 200 204 205 208 209 212 216 218 215 215 216 216 216 214 213 215 217 219 222 223 225 227 228 227 230 234 237 238 238 237 238 239 240 241 240 241 240 235 234 234 236 237 238